Location: Newark
(31.5350°N, 35.0986°E)
Time: 23:00:55
(UTC+00:00)

SR - Pass Details

Date: 22 October 2019
Orbit: 574 x 882 km, 66.7° (Epoch: 17 November)

Event Time Altitude Azimuth Distance (km) Brightness Sun altitude
Rises 03:49:25 0° 345° (NNW) 3,470 ? -0.4°
Reaches altitude 10° 03:52:10 10° 354° (N) 2,540 ? 0.2°
Maximum altitude 03:57:29 33° 58° (ENE) 1,433 ? 1.3°
Drops below altitude 10° 04:02:41 10° 121° (ESE) 2,492 ? 2.3°
Sets 04:05:21 0° 131° (SE) 3,395 ? 2.9°
